Weather History for Cape Girardeau, MO

Change the Weather History Date:

Wednesday, July 24, 2013

  Actual Average Record
Temperature  
Mean Temperature 73 °F 79 °F  
Max Temperature 84 °F 89 °F 102 °F (1965)
Min Temperature 61 °F 68 °F 51 °F (2000)
Degree Days  
Heating Degree Days 0 0  
Month to date heating degree days 0 0  
Since 1 June heating degree days 0 4  
Since 1 July heating degree days 0 0  
Cooling Degree Days 8 14  
Month to date cooling degree days 297 333  
Year to date cooling degree days 801 797  
Since 1 June cooling degree days 630 645  
Growing Degree Days 24 (Base 50)    
Moisture  
Dew Point 63 °F    
Average Humidity 70    
Maximum Humidity 97    
Minimum Humidity 43    
Precipitation  
Precipitation 0.00 in 0.12 in 1.43 in (1971)
Month to date precipitation 0.25 2.62  
Year to date precipitation 24.18 27.29  
Sea Level Pressure  
Sea Level Pressure 29.93 in    
Wind  
Wind Speed 7 mph (NNE)    
Max Wind Speed 16 mph    
Max Gust Speed 21 mph    
Visibility 10 miles    
Events      
T = Trace of Precipitation, MM = Missing Value Source: NWS Daily Summary

Daily Weather History Graph

Daily Weather History Graph

Search for Another Location

Airport:

Trip Planner

Search our weather history database for the weather conditions in past years. The results will help you decide how hot, cold, wet, or windy it might be!

Date:

Astronomy

Jul. 24, 2013 Rise Set
Actual Time 5:56 AM CDT 8:12 PM CDT
Civil Twilight 5:27 AM CDT 8:41 PM CDT
Nautical Twilight 4:51 AM CDT 9:17 PM CDT
Astronomical Twilight 4:11 AM CDT 9:57 PM CDT
Moon 9:23 PM CDT (7/24) 8:12 AM CDT (7/24)
Length of Visible Light 15h 14m
Length of Day
14h 15m
Waning Gibbous, 94% of the Moon is Illuminated
Jul 24
Waning Gibbous
Jul 29
Last Quarter
Aug 6
New
Aug 14
First Quarter
Aug 20
Full

Hourly Weather History & Observations

Time (CDT) Temp. Heat Index Dew Point Humidity Pressure Visibility Wind Dir Wind Speed Gust Speed Precip Events Conditions
12:53 AM 72.0 °F - 69.1 °F 91% 29.89 in 10.0 mi ESE 5.8 mph - N/A   Overcast
1:53 AM 71.1 °F - 68.0 °F 90% 29.86 in 10.0 mi North 4.6 mph - N/A   Clear
2:53 AM 70.0 °F - 68.0 °F 93% 29.87 in 8.0 mi WSW 8.1 mph - N/A   Clear
3:53 AM 69.1 °F - 66.9 °F 93% 29.86 in 6.0 mi Calm Calm - N/A   Clear
4:53 AM 70.0 °F - 68.0 °F 93% 29.86 in 10.0 mi North 3.5 mph - N/A   Clear
5:53 AM 70.0 °F - 66.9 °F 90% 29.87 in 10.0 mi NNE 6.9 mph - N/A   Clear
6:53 AM 71.1 °F - 66.9 °F 87% 29.89 in 10.0 mi NE 10.4 mph - N/A   Clear
7:53 AM 72.0 °F - 66.0 °F 81% 29.92 in 10.0 mi ENE 12.7 mph 20.7 mph N/A   Partly Cloudy
8:53 AM 73.0 °F - 66.0 °F 79% 29.94 in 10.0 mi NE 12.7 mph - N/A   Overcast
9:53 AM 73.9 °F - 64.0 °F 71% 29.94 in 10.0 mi NE 8.1 mph - N/A   Overcast
10:53 AM 75.0 °F - 64.9 °F 71% 29.95 in 10.0 mi NE 6.9 mph - N/A   Overcast
11:37 AM 75.2 °F - 62.6 °F 65% 29.97 in 10.0 mi NE 10.4 mph - N/A   Overcast
11:53 AM 75.9 °F - 63.0 °F 64% 29.97 in 10.0 mi NNE 8.1 mph - N/A   Overcast
12:14 PM 77.0 °F - 62.6 °F 61% 29.98 in 10.0 mi NNE 6.9 mph - N/A   Overcast
12:53 PM 81.0 °F 82.5 °F 64.0 °F 56% 29.96 in 10.0 mi NE 6.9 mph - N/A   Partly Cloudy
1:53 PM 82.0 °F 83.1 °F 63.0 °F 52% 29.95 in 10.0 mi Variable 4.6 mph - N/A   Mostly Cloudy
2:53 PM 82.9 °F 83.7 °F 62.1 °F 49% 29.94 in 10.0 mi North 9.2 mph 18.4 mph N/A   Clear
3:53 PM 82.9 °F 82.8 °F 59.0 °F 44% 29.94 in 10.0 mi North 11.5 mph - N/A   Clear
4:53 PM 82.9 °F 82.8 °F 59.0 °F 44% 29.94 in 10.0 mi North 10.4 mph - N/A   Clear
5:53 PM 82.0 °F 82.0 °F 57.9 °F 44% 29.94 in 10.0 mi North 10.4 mph - N/A   Clear
6:53 PM 79.0 °F - 57.9 °F 48% 29.94 in 10.0 mi North 12.7 mph - N/A   Clear
7:53 PM 75.0 °F - 57.0 °F 53% 29.95 in 10.0 mi North 8.1 mph - N/A   Clear
8:53 PM 71.1 °F - 57.9 °F 63% 29.97 in 10.0 mi North 4.6 mph - N/A   Clear
9:53 PM 69.1 °F - 59.0 °F 70% 29.99 in 10.0 mi North 5.8 mph - N/A   Clear
10:53 PM 66.9 °F - 57.9 °F 73% 30.01 in 10.0 mi North 4.6 mph - N/A   Clear
11:53 PM 66.0 °F - 57.9 °F 75% 30.01 in 10.0 mi North 4.6 mph - N/A   Clear